Location: *
(31.2983°S, 151.4094°E)
Time: 12:11:08
(UTC+00:00)

ASTRO E2 - Pass Details

Date: 25 August 2019
Orbit: 511 x 517 km, 31.4° (Epoch: 19 September)

Event Time Altitude Azimuth Distance (km) Brightness Sun altitude
Exits shadow 18:48:58 60° 274° (W) 600 2.6 -19.9°
Maximum altitude 18:49:40 90° 133° (SE) 525 2.6 -19.7°
Drops below altitude 10° 18:53:43 10° 94° (E) 1,753 6.6 -18.9°
Sets 18:55:58 0° 93° (E) 2,640 8.0 -18.4°
